sat.trackr.live / text

‹ back to catalog

STARLINK-31921

NORAD 59868 · 2024-098L

PAYLOAD ACTIVE UNKNOWN

§ Identity

Operator
Country
US
Launch date
2024-05-24
Launch site
AFETR
Launch vehicle
Mass (kg)
RCS (m²)

Purposes: comms

External: N2YO · Heavens-Above · Gunter

§ Orbital elements

Epoch: 2026-09-21T06:36:06.615648Z

Period
94.27 min
Inclination
43.0001°
Eccentricity
0.0001171
Mean motion
15.27578162 rev/d
Perigee alt
482.3 km
Apogee alt
483.9 km
Semi-major
6,861.2 km
B*
2.3588e-6
RAAN
213.0795°
Arg perigee
269.6946°
Mean anomaly
90.3772°
Rev number
13,221

§ Raw data

STARLINK-319211 59868U 24098L   26264.27507657 -.00000197  00000+0  23588-5 0  99962 59868  43.0001 213.0795 0001171 269.6946  90.3772 15.27578162132216

JSON: /api/v1/satellites/59868 · /tle

For live sub-satellite position, see the globe view (requires WebGL).

§ Visibility from observer

Set your observer location to see the next 7 days of passes ≥ 10°. The values pass through the URL so the page stays shareable.

No JS? Fill the form by hand. The geolocation button needs JavaScript.